TimeEDT,TemperatureF,Dew PointF,Humidity,Sea Level PressureIn,VisibilityMPH,Wind Direction,Wind SpeedMPH,Gust SpeedMPH,PrecipitationIn,Events,Conditions,WindDirDegrees,DateUTC
12:54 AM,42.8,37.4,81,29.55,10.0,West,3.5,-,N/A,Rain,Light Rain,260,2012-11-01 04:54:00
1:54 AM,43.0,37.0,80,29.55,10.0,West,8.1,-,0.00,Rain,Light Rain,260,2012-11-01 05:54:00
2:25 AM,42.8,37.4,81,29.55,10.0,West,5.8,-,0.00,,Overcast,260,2012-11-01 06:25:00
2:54 AM,43.0,37.0,80,29.55,10.0,West,6.9,-,0.00,,Overcast,260,2012-11-01 06:54:00
3:54 AM,43.0,37.0,80,29.55,10.0,West,5.8,-,0.00,,Overcast,270,2012-11-01 07:54:00
4:40 AM,42.8,35.6,76,29.55,10.0,West,6.9,-,N/A,,Overcast,260,2012-11-01 08:40:00
4:54 AM,42.8,35.6,76,29.55,10.0,West,9.2,-,N/A,,Overcast,260,2012-11-01 08:54:00
5:54 AM,42.8,35.6,76,29.55,10.0,West,10.4,18.4,N/A,,Overcast,270,2012-11-01 09:54:00
6:54 AM,43.0,36.0,76,29.56,10.0,West,5.8,-,N/A,,Overcast,260,2012-11-01 10:54:00
7:37 AM,42.8,35.6,76,29.56,10.0,West,6.9,-,0.00,Rain,Light Rain,260,2012-11-01 11:37:00
7:54 AM,42.8,35.6,76,29.57,10.0,West,5.8,-,N/A,Rain,Light Rain,260,2012-11-01 11:54:00
8:54 AM,42.8,37.4,81,29.58,10.0,Variable,5.8,-,N/A,Rain,Light Rain,0,2012-11-01 12:54:00
9:03 AM,42.8,37.4,81,29.58,10.0,West,5.8,-,0.00,,Overcast,270,2012-11-01 13:03:00
9:54 AM,44.6,37.4,76,29.58,10.0,WSW,12.7,18.4,N/A,,Overcast,250,2012-11-01 13:54:00
10:54 AM,45.0,37.9,76,29.59,10.0,West,10.4,18.4,0.00,,Overcast,270,2012-11-01 14:54:00
11:54 AM,46.4,37.4,71,29.59,10.0,West,11.5,-,N/A,,Overcast,260,2012-11-01 15:54:00
12:25 PM,46.4,37.4,71,29.59,10.0,WSW,13.8,-,N/A,,Overcast,250,2012-11-01 16:25:00
12:54 PM,46.0,37.0,71,29.59,10.0,West,13.8,23.0,N/A,,Overcast,270,2012-11-01 16:54:00
1:54 PM,46.4,37.4,71,29.57,10.0,West,9.2,20.7,N/A,,Overcast,260,2012-11-01 17:54:00
2:54 PM,48.0,37.0,66,29.57,10.0,West,11.5,18.4,N/A,,Overcast,260,2012-11-01 18:54:00
3:54 PM,46.4,37.4,71,29.58,10.0,WSW,15.0,-,N/A,Rain,Light Rain,250,2012-11-01 19:54:00
4:54 PM,46.4,37.4,71,29.59,10.0,WSW,6.9,-,N/A,,Overcast,250,2012-11-01 20:54:00
5:54 PM,46.9,37.9,71,29.61,10.0,West,9.2,-,N/A,,Overcast,270,2012-11-01 21:54:00
6:54 PM,46.4,37.4,71,29.62,10.0,West,8.1,-,N/A,,Overcast,260,2012-11-01 22:54:00
7:54 PM,46.0,37.9,73,29.64,10.0,West,8.1,-,0.00,,Overcast,260,2012-11-01 23:54:00
8:54 PM,46.0,37.9,73,29.64,10.0,West,10.4,-,0.00,Rain,Light Rain,260,2012-11-02 00:54:00
9:54 PM,45.0,37.9,76,29.65,10.0,West,8.1,-,0.00,,Overcast,260,2012-11-02 01:54:00
10:54 PM,45.0,37.0,74,29.65,10.0,West,10.4,17.3,N/A,,Overcast,270,2012-11-02 02:54:00
11:54 PM,45.0,37.0,74,29.65,10.0,West,10.4,19.6,N/A,,Overcast,270,2012-11-02 03:54:00